Regional Weather Roundup
Issued by NWS Green Bay, WI

Home | Current Version | Previous Version | Graphics & Text | Print | Product List | Glossary Off
Versions: 1 2 3 4 5 6 7 8 9 10 11 12 13 14 15 16 17 18 19 20 21 22 23 24 25 26 27 28 29 30 31 32 33 34 35 36 37 38 39 40 41 42 43 44 45 46 47 48 49 50

000
ASUS43 KGRB 211711
RWRGRB

NORTH-CENTRAL AND NORTHEAST WISCONSIN REGIONAL WEATHER ROUNDUP
NATIONAL WEATHER SERVICE GREEN BAY WI
1100 AM CST TUE FEB 21 2017

WIZ005-009-010>012-018-019-211800-
NORTH CENTRAL WISCONSIN

CITY           SKY/WX    TMP DP  RH WIND       PRES   REMARKS
IRONWOOD       SUNNY     47  35  63 SW12      29.83R
MANITOWISH WTR SUNNY     43  37  79 W5        29.85R
ARBOR VITAE    SUNNY     45  37  74 W6        29.86R
EAGLE RIVER    SUNNY     44  35  70 W8        29.84S
LAND O LAKES   SUNNY     47  35  63 SW6       29.85R
RHINELANDER    SUNNY     47  38  71 W7        29.86R
PHILLIPS       MOSUNNY   39  37  90 SW6       29.88S
ANTIGO         SUNNY     43  37  81 SW8       29.89R
TOMAHAWK       SUNNY     45  36  69 W6        29.89R
MERRILL        NOT AVBL
$$

WIZ013-073-211800-
NORTHEAST WISCONSIN

CITY           SKY/WX    TMP DP  RH WIND       PRES   REMARKS
IRON MOUNTAIN  SUNNY     50  35  56 W5        29.82S
MARINETTE      SUNNY     53  41  63 W3        29.87S
OCONTO         SUNNY     52  40  64 W7        29.88R
$$

WIZ017-030-035>037-045-211800-
CENTRAL WISCONSIN

CITY           SKY/WX    TMP DP  RH WIND       PRES   REMARKS
MEDFORD        CLOUDY    36  35  97 SW5       29.90S FOG
WAUSAU         SUNNY     42  37  82 NW7       29.89R
MOSINEE        MOSUNNY   39  37  93 SW6       29.92R
MARSHFIELD     MOSUNNY   43  39  86 W7        29.90S
WISC RAPIDS    SUNNY     48  41  76 W6        29.93R
STEVENS POINT  SUNNY     44  37  78 W3        29.91S
WAUPACA        SUNNY     53  41  65 SW6       29.92R
SHAWANO        SUNNY     51  41  69 W5        29.90R
CLINTONVILLE   SUNNY     50  37  62 SW7       29.90R
WAUTOMA        SUNNY     51  41  68 SW5       29.92F
$$

WIZ038-039-048-051-211800-
FOX VALLEY

CITY           SKY/WX    TMP DP  RH WIND       PRES   REMARKS
NWS GREEN BAY  SUNNY     52  43  71 SW7       29.90S
APPLETON       SUNNY     48  39  71 SW7       29.89F
OSHKOSH        SUNNY     50  43  77 W6        29.92R
FOND DU LAC    SUNNY     50  41  71 SW7       29.92S
$$

WIZ022-050-052-211800-
EAST CENTRAL WISCONSIN

CITY           SKY/WX    TMP DP  RH WIND       PRES   REMARKS
EPHRAIM        FAIR      50  42  74 W10       29.85F
WASHINGTON ISL FAIR      46  41  82 SW10      29.85F
STURGEON BAY   SUNNY     51  40  65 W12       29.88S
MANITOWOC      SUNNY     52  42  69 W9        29.91S
SHEBOYGAN      SUNNY     51  43  74 W10       29.91S
$$

LMZ563-521-522-541>543-211800-
LAKESHORE

STATION/POSITION TIME  TEMP    WIND        PRES    VSBY  WAVE
                       AIR SEA DIR/SP/G                  HT/PER
                 (UTC) (F)     (DEG/KT/KT) (MB)    (MI)  (FT/S)
SHEBOYGAN LKSHOR 1700   50     270/  7/  8 1013.0S
KEWAUNEE LKSHORE 1648   51     280/ 11/ 15 1011.4F
NORTHPORT PIER   1640   52     290/  5/ 11 1010.8S
SISTER BAY LKSHO 1620   55     270/  8/ 10   N/A
CHAMBERS ISLAND  1640   46     140/  5/  8 1010.8F
MENOMINEE LKSHOR 1648   52     250/  7/ 11 1010.5F
$$




USA.gov is the U.S. government's official web portal to all federal, state and local government web resources and services.